Snowfall_Accumulation
0.0 0.0 0.0 0.0 0.0 0.0 0.0 0.0 0.0 0.0 0.0 0.0 0.0 0.0 0.0 0.0 0.0 0.0 0.0 nan nan nan nan nan nan nan nan nan nan nan nan nan nan nan nan nan nan nan
0.0 0.0 0.0 0.0 0.0 0.0 0.0 0.0 0.0 0.0 0.0 0.0 0.0 0.0 0.0 0.0 0.0 0.0 0.0 nan nan nan nan nan nan nan nan nan nan nan nan nan nan nan nan nan nan nan
0.0 0.0 0.0 0.0 0.0 0.0 0.0 0.0 0.0 0.0 0.0 0.0 0.0 0.0 0.0 0.0 0.0 0.0 0.0 0.0 0.0 nan nan nan nan nan nan nan nan nan nan nan nan nan nan nan nan nan
0.1 0.0 0.0 0.0 0.0 0.0 0.0 0.0 0.0 0.0 0.0 0.0 0.0 0.0 0.0 0.0 0.0 0.0 0.0 0.0 0.0 nan nan nan nan nan nan nan nan nan nan nan nan nan nan nan nan nan
0.3 0.1 0.1 0.1 0.0 0.0 0.0 0.0 0.0 0.0 0.0 0.0 0.0 0.0 0.0 0.0 0.0 0.0 0.0 0.0 0.0 nan nan nan nan nan nan nan nan nan nan nan nan nan nan nan nan nan
0.5 0.5 0.5 0.1 0.1 0.1 0.1 0.0 0.0 0.0 0.0 0.0 0.0 0.0 0.0 0.0 0.0 0.0 0.0 0.0 0.0 0.0 nan nan nan nan nan nan nan nan nan nan nan nan nan nan nan nan
1.2 0.8 0.7 nan nan nan 0.1 0.1 0.0 0.0 0.0 0.0 0.1 0.4 1.2 1.4 1.3 0.7 0.0 0.0 0.0 0.1 0.0 0.0 0.0 0.0 0.0 nan nan nan nan nan nan nan nan nan nan nan
1.3 0.4 0.6 0.7 1.1 nan nan nan nan 0.1 0.1 0.0 0.3 0.4 0.5 0.7 0.5 0.5 0.4 0.0 0.0 0.6 0.9 0.0 0.0 0.0 0.0 0.0 nan nan nan nan nan nan nan nan nan nan
1.5 0.7 0.4 0.3 nan 0.1 nan nan nan nan nan 0.2 1.0 1.7 1.0 0.9 0.6 0.1 0.0 0.1 0.4 0.7 0.3 0.3 0.3 0.7 0.2 0.1 nan nan nan nan nan nan nan nan nan nan
5.2 4.3 3.1 2.9 2.4 0.4 0.4 1.2 1.9 1.9 2.6 2.6 2.7 3.4 2.1 1.6 0.8 0.1 0.1 0.1 0.3 0.9 0.5 1.0 1.2 1.7 0.5 0.4 nan nan nan nan nan nan nan nan nan nan
5.7 4.9 5.2 5.8 nan nan 4.5 5.4 5.6 9.1 nan nan nan nan nan nan nan 1.1 2.8 0.5 1.5 4.7 5.3 4.1 4.1 4.9 3.9 4.1 2.0 nan nan nan nan nan nan nan nan nan
3.1 3.5 nan 3.4 nan nan 2.7 3.6 6.1 12.9 9.0 7.8 8.1 7.6 nan nan nan 3.6 3.0 3.6 5.7 6.0 5.9 7.6 6.7 6.9 7.1 6.1 4.9 3.5 3.1 nan nan nan nan nan nan 0.9
5.0 6.1 5.4 nan nan nan nan 5.1 11.4 11.9 9.7 10.8 10.2 10.1 8.9 8.7 9.4 9.4 8.3 7.3 8.0 10.4 7.6 5.9 6.1 7.3 8.3 10.2 5.9 5.8 4.8 5.9 5.0 4.7 nan nan nan 2.2
5.8 5.6 6.5 nan nan nan 3.7 nan nan 3.9 10.8 11.8 10.9 11.0 9.6 9.1 8.0 7.4 7.1 7.4 7.5 9.6 7.2 4.6 8.2 7.6 9.2 10.2 9.8 5.8 6.3 5.6 4.6 5.2 5.4 nan nan nan
4.2 8.3 nan nan nan 1.5 nan nan 3.4 6.2 7.6 9.2 9.4 10.3 8.9 6.6 4.0 4.1 2.9 3.1 3.1 3.6 3.7 3.2 5.0 6.9 7.8 9.2 9.4 7.0 6.9 5.3 4.6 5.1 5.3 5.1 4.9 4.3
1.8 4.4 3.2 3.8 3.0 4.3 4.7 5.5 6.1 6.1 6.8 7.5 6.4 4.6 3.4 2.8 2.4 1.8 2.5 2.6 2.9 3.1 1.3 1.8 2.3 2.2 4.9 3.8 3.7 5.2 4.1 4.8 4.1 3.9 3.8 4.0 4.0 4.2
3.9 5.2 4.6 3.7 3.9 3.9 3.9 4.0 3.4 3.3 4.6 5.5 5.1 4.3 3.4 2.4 2.1 1.2 1.7 2.5 3.6 3.9 4.3 2.7 2.5 2.0 3.0 3.1 5.9 4.0 3.9 3.7 2.7 2.7 2.5 3.4 3.4 3.2
3.7 6.2 10.6 10.6 7.5 5.6 6.0 5.5 4.8 3.9 4.1 3.7 4.2 3.2 3.5 4.2 3.6 3.0 2.7 3.4 3.3 2.5 2.5 2.8 3.8 3.8 2.5 2.4 3.2 4.6 3.9 3.3 3.0 2.3 2.4 3.8 3.1 2.8
7.3 7.7 11.2 11.2 6.7 3.9 4.2 4.1 5.5 4.9 2.1 3.2 3.6 4.3 4.2 3.5 4.0 3.3 3.4 2.9 2.9 1.8 1.8 1.7 2.3 4.4 8.4 11.2 2.8 nan 4.9 3.6 3.8 3.5 1.9 2.4 3.7 3.5
3.1 5.2 8.0 6.3 3.5 3.1 3.2 3.5 3.6 4.4 4.5 3.7 5.6 7.8 9.2 6.2 5.6 4.1 3.5 5.4 2.9 1.8 1.5 1.0 1.4 2.3 6.4 11.9 12.9 5.9 nan 4.2 3.9 4.9 3.8 2.1 1.7 nan
2.2 2.0 4.0 3.3 2.4 1.4 6.2 7.3 9.8 8.5 8.6 11.6 6.5 7.0 15.6 4.0 4.6 3.6 3.9 2.9 2.8 1.4 1.5 1.1 1.2 0.5 1.9 2.8 17.2 6.1 3.3 nan 1.3 2.2 2.4 3.2 2.8 1.8
4.3 2.5 2.5 3.0 4.5 4.2 8.8 14.6 12.0 11.7 8.3 5.7 12.5 18.2 15.7 6.9 6.8 5.7 6.8 6.7 2.0 2.3 1.2 0.5 0.3 0.6 1.2 2.8 4.3 8.3 2.6 2.0 nan nan nan nan 5.0 8.2
7.9 3.8 5.4 7.0 8.4 8.7 4.0 8.5 3.6 7.6 6.9 7.0 6.2 6.3 29.8 8.7 4.6 4.6 5.2 3.8 2.3 2.4 1.5 1.8 0.9 0.7 1.3 1.8 3.0 4.4 2.5 4.6 1.7 1.8 1.9 nan nan nan
Water_Equivalent
0.00 0.00 0.00 0.00 0.00 0.00 0.00 0.00 0.00 0.00 0.00 0.00 0.00 0.00 0.00 0.00 0.00 0.00 0.00 nan nan nan nan nan nan nan nan nan nan nan nan nan nan nan nan nan nan nan
0.00 0.00 0.00 0.00 0.00 0.00 0.00 0.00 0.00 0.00 0.00 0.00 0.00 0.00 0.00 0.00 0.00 0.00 0.00 nan nan nan nan nan nan nan nan nan nan nan nan nan nan nan nan nan nan nan
0.01 0.01 0.00 0.00 0.00 0.00 0.00 0.00 0.00 0.00 0.00 0.00 0.00 0.00 0.00 0.00 0.00 0.00 0.00 0.00 0.00 nan nan nan nan nan nan nan nan nan nan nan nan nan nan nan nan nan
0.03 0.02 0.01 0.00 0.00 0.00 0.00 0.00 0.00 0.00 0.00 0.00 0.00 0.00 0.00 0.00 0.00 0.00 0.00 0.00 0.00 nan nan nan nan nan nan nan nan nan nan nan nan nan nan nan nan nan
0.08 0.04 0.03 0.02 0.01 0.00 0.00 0.00 0.00 0.00 0.00 0.00 0.00 0.00 0.00 0.00 0.00 0.00 0.00 0.00 0.00 nan nan nan nan nan nan nan nan nan nan nan nan nan nan nan nan nan
0.09 0.09 0.10 0.03 0.03 0.02 0.01 0.00 0.00 0.00 0.00 0.00 0.00 0.00 0.00 0.00 0.00 0.00 0.00 0.00 0.00 0.00 nan nan nan nan nan nan nan nan nan nan nan nan nan nan nan nan
0.20 0.13 0.12 nan nan nan 0.03 0.02 0.01 0.00 0.00 0.00 0.02 0.07 0.21 0.30 0.26 0.20 0.00 0.00 0.00 0.02 0.00 0.00 0.00 0.00 0.00 nan nan nan nan nan nan nan nan nan nan nan
0.22 0.07 0.11 0.13 0.20 nan nan nan nan 0.02 0.01 0.00 0.05 0.06 0.06 0.10 0.09 0.10 0.08 0.00 0.01 0.15 0.19 0.00 0.00 0.00 0.01 0.01 nan nan nan nan nan nan nan nan nan nan
0.26 0.13 0.08 0.06 nan 0.02 nan nan nan nan nan 0.03 0.15 0.28 0.16 0.15 0.11 0.01 0.00 0.02 0.10 0.17 0.06 0.12 0.07 0.20 0.06 0.02 nan nan nan nan nan nan nan nan nan nan
1.15 0.79 0.60 0.51 0.49 0.10 0.09 0.25 0.36 0.35 0.50 0.51 0.49 0.68 0.43 0.31 0.16 0.03 0.04 0.02 0.11 0.30 0.12 0.34 0.46 0.55 0.17 0.14 nan nan nan nan nan nan nan nan nan nan
1.48 1.14 1.12 1.12 nan nan 0.91 1.01 1.07 1.93 nan nan nan nan nan nan nan 0.27 0.59 0.19 0.56 1.10 1.09 1.00 1.25 1.37 1.27 1.28 0.62 nan nan nan nan nan nan nan nan nan
0.72 0.91 nan 0.96 nan nan 0.54 0.58 0.96 2.28 1.80 1.68 1.70 1.65 nan nan nan 0.70 0.61 0.71 1.22 1.35 1.18 1.55 1.55 1.60 1.54 1.46 1.20 0.91 0.79 nan nan nan nan nan nan 0.23
0.84 1.00 1.07 nan nan nan nan 0.89 1.94 2.33 1.80 1.96 1.79 1.86 1.72 1.64 1.77 1.82 1.62 1.41 1.51 1.89 1.49 1.28 1.39 1.64 1.69 1.67 1.27 1.26 1.06 1.17 1.05 1.05 nan nan nan 0.47
0.93 0.97 1.24 nan nan nan 0.84 nan nan 1.04 2.23 2.31 2.06 1.92 1.59 1.46 1.34 1.30 1.27 1.33 1.37 1.54 1.35 0.86 1.62 1.35 1.42 1.55 1.48 1.11 1.16 1.07 0.90 0.96 1.05 nan nan nan
0.90 1.62 nan nan nan 0.51 nan nan 1.13 1.52 1.77 2.00 1.86 1.84 1.54 1.09 0.64 0.67 0.47 0.50 0.51 0.60 0.64 0.64 0.94 1.18 1.29 1.31 1.19 1.06 1.08 1.00 0.95 0.97 1.02 0.99 0.95 0.90
0.52 1.07 1.05 0.96 1.01 1.22 1.12 1.09 1.16 1.19 1.26 1.28 1.02 0.75 0.57 0.51 0.44 0.35 0.46 0.47 0.52 0.51 0.24 0.37 0.51 0.50 0.96 0.76 0.68 0.87 0.75 0.76 0.76 0.72 0.72 0.76 0.77 0.87
1.02 1.17 0.94 0.70 0.67 0.66 0.65 0.67 0.58 0.55 0.72 0.85 0.78 0.63 0.51 0.36 0.34 0.24 0.31 0.42 0.58 0.59 0.67 0.45 0.40 0.35 0.53 0.51 0.95 0.63 0.61 0.57 0.49 0.49 0.49 0.66 0.68 0.64
0.74 1.05 1.61 1.60 1.06 0.76 0.83 0.76 0.67 0.63 0.59 0.59 0.69 0.50 0.50 0.59 0.49 0.44 0.41 0.47 0.46 0.36 0.35 0.40 0.57 0.56 0.42 0.39 0.53 0.63 0.55 0.44 0.48 0.40 0.44 0.69 0.55 0.53
1.16 1.03 1.56 1.65 0.95 0.49 0.54 0.54 0.73 0.68 0.26 0.51 0.58 0.68 0.69 0.55 0.64 0.52 0.56 0.47 0.45 0.26 0.24 0.27 0.38 0.76 1.13 1.45 0.40 nan 0.66 0.51 0.58 0.59 0.33 0.44 0.67 0.62
0.49 0.75 1.05 0.90 0.48 0.40 0.39 0.43 0.45 0.62 0.65 0.56 0.82 1.11 1.31 0.91 0.87 0.61 0.54 0.76 0.45 0.26 0.21 0.14 0.22 0.34 0.77 1.52 1.96 0.92 nan 0.76 0.66 0.74 0.60 0.35 0.31 nan
0.35 0.31 0.60 0.49 0.37 0.25 0.92 1.11 1.50 1.30 1.34 1.78 0.99 1.08 2.49 0.63 0.73 0.56 0.61 0.61 0.58 0.21 0.22 0.17 0.17 0.17 0.30 0.52 2.88 1.07 0.65 nan 0.21 0.36 0.41 0.52 0.49 0.32
0.56 0.35 0.36 0.38 0.61 0.58 1.32 2.21 1.89 1.86 1.25 0.89 1.86 2.91 2.61 1.06 0.98 0.82 1.01 0.99 0.32 0.35 0.19 0.10 0.06 0.11 0.22 0.40 0.58 1.47 0.46 0.43 nan nan nan nan 0.72 1.09
1.07 0.48 0.70 0.94 1.18 1.24 0.53 1.18 0.51 1.10 0.97 0.99 0.88 0.92 5.11 1.16 0.69 0.71 0.86 0.61 0.36 0.36 0.24 0.26 0.14 0.12 0.20 0.26 0.43 0.65 0.34 0.81 0.32 0.34 0.42 nan nan nan
SL_Ratio
nan nan nan nan nan nan nan nan nan nan nan nan nan nan nan nan nan nan nan nan nan nan nan nan nan nan nan nan nan nan nan nan nan nan nan nan nan nan
nan nan nan nan nan nan nan nan nan nan nan nan nan nan nan nan nan nan nan nan nan nan nan nan nan nan nan nan nan nan nan nan nan nan nan nan nan nan
3.1 2.5 5.0 nan nan nan nan nan nan nan nan nan nan nan nan nan nan nan nan nan nan nan nan nan nan nan nan nan nan nan nan nan nan nan nan nan nan nan
4.1 2.5 2.6 0.0 nan nan nan nan nan nan nan nan nan nan nan nan nan nan nan nan nan nan nan nan nan nan nan nan nan nan nan nan nan nan nan nan nan nan
3.6 3.1 2.9 3.1 4.3 3.3 nan nan nan nan nan nan nan nan nan nan nan nan nan nan nan nan nan nan nan nan nan nan nan nan nan nan nan nan nan nan nan nan
6.1 5.1 4.9 3.4 3.3 4.2 4.2 4.4 nan nan nan nan nan nan nan nan nan nan nan nan nan nan nan nan nan nan nan nan nan nan nan nan nan nan nan nan nan nan
6.2 6.3 6.1 nan nan nan 4.0 4.4 4.2 5.0 nan nan 5.7 5.6 6.0 4.9 4.8 3.4 nan nan nan 3.5 nan nan nan nan nan nan nan nan nan nan nan nan nan nan nan nan
6.1 5.5 5.1 5.2 5.4 nan nan nan nan 5.8 5.7 4.7 6.1 6.9 7.2 6.8 5.7 5.2 5.4 3.3 5.9 4.1 4.5 6.7 nan 5.0 4.5 3.3 nan nan nan nan nan nan nan nan nan nan
5.8 5.2 4.9 4.8 nan 4.1 nan nan nan nan nan 5.4 7.0 6.0 6.1 6.1 5.4 5.0 2.5 5.1 3.7 3.9 4.6 3.0 4.3 3.8 4.0 3.7 nan nan nan nan nan nan nan nan nan nan
4.5 5.4 5.1 5.6 4.8 4.3 3.8 4.9 5.3 5.5 5.2 5.1 5.5 5.0 4.8 5.3 5.1 4.6 3.7 2.8 2.5 2.9 3.9 3.0 2.6 3.1 2.6 2.8 nan nan nan nan nan nan nan nan nan nan
3.9 4.3 4.6 5.2 nan nan 4.9 5.4 5.3 4.7 nan nan nan nan nan nan nan 4.0 4.7 2.8 2.7 4.3 4.9 4.1 3.3 3.6 3.1 3.2 3.2 nan nan nan nan nan nan nan nan nan
4.3 3.8 nan 3.5 nan nan 4.9 6.1 6.3 5.6 5.0 4.6 4.8 4.6 nan nan nan 5.1 5.0 5.1 4.7 4.4 5.0 4.9 4.3 4.3 4.6 4.2 4.0 3.9 3.9 nan nan nan nan nan nan 3.8
6.0 6.0 5.1 nan nan nan nan 5.7 5.9 5.1 5.4 5.5 5.7 5.4 5.2 5.3 5.3 5.2 5.1 5.2 5.3 5.5 5.1 4.6 4.4 4.4 4.9 6.1 4.6 4.6 4.5 5.0 4.8 4.5 nan nan nan 4.7
6.3 5.8 5.3 nan nan nan 4.4 nan nan 3.8 4.8 5.1 5.3 5.8 6.1 6.3 6.0 5.7 5.6 5.6 5.5 6.2 5.3 5.4 5.1 5.6 6.5 6.6 6.7 5.2 5.5 5.2 5.1 5.4 5.1 nan nan nan
4.7 5.1 nan nan nan 3.0 nan nan 3.0 4.1 4.3 4.6 5.1 5.6 5.8 6.1 6.2 6.1 6.2 6.1 6.2 5.9 5.7 5.1 5.3 5.9 6.1 7.0 7.8 6.7 6.3 5.3 4.8 5.2 5.2 5.2 5.2 4.8
3.5 4.2 3.0 3.9 3.0 3.6 4.1 5.1 5.2 5.1 5.4 5.9 6.3 6.2 6.0 5.6 5.4 5.2 5.4 5.5 5.7 6.1 5.4 5.0 4.6 4.4 5.1 5.0 5.5 6.0 5.5 6.3 5.3 5.4 5.3 5.2 5.1 4.8
3.8 4.5 4.9 5.3 5.8 6.0 6.0 6.0 5.9 6.0 6.4 6.5 6.5 6.8 6.7 6.6 6.2 5.1 5.6 6.0 6.2 6.7 6.5 6.0 6.1 5.6 5.6 6.1 6.3 6.3 6.4 6.4 5.5 5.5 5.2 5.3 5.0 5.0
4.9 5.9 6.6 6.6 7.1 7.3 7.2 7.3 7.2 6.1 6.9 6.3 6.1 6.3 6.9 7.0 7.4 6.8 6.7 7.2 7.2 7.1 7.2 7.0 6.6 6.7 6.1 6.2 6.1 7.3 7.1 7.4 6.2 5.8 5.4 5.4 5.6 5.2
6.3 7.5 7.2 6.8 7.0 7.9 7.9 7.6 7.6 7.2 8.1 6.2 6.2 6.3 6.1 6.4 6.2 6.3 6.2 6.2 6.4 7.1 7.4 6.4 6.1 5.8 7.4 7.8 7.2 nan 7.3 7.1 6.6 6.0 5.8 5.5 5.5 5.6
6.4 7.0 7.6 7.1 7.3 7.8 8.3 8.3 7.9 7.1 6.9 6.7 6.8 7.1 7.0 6.8 6.4 6.7 6.5 7.1 6.6 7.0 7.0 6.7 6.4 7.0 8.3 7.8 6.6 6.4 nan 5.5 5.9 6.6 6.4 6.0 5.5 nan
6.3 6.4 6.7 6.7 6.4 5.7 6.8 6.6 6.6 6.5 6.5 6.5 6.6 6.4 6.3 6.3 6.3 6.4 6.4 4.8 4.8 6.4 6.9 6.8 6.9 3.0 6.2 5.4 6.0 5.7 5.0 nan 6.4 6.3 6.0 6.3 5.7 5.5
7.6 7.0 7.0 7.7 7.3 7.2 6.6 6.6 6.4 6.3 6.7 6.4 6.7 6.3 6.0 6.5 7.0 7.0 6.8 6.8 6.3 6.4 6.5 5.4 4.7 5.3 5.5 6.9 7.4 5.6 5.7 4.8 nan nan nan nan 6.9 7.5
7.4 8.0 7.6 7.4 7.1 7.0 7.6 7.2 7.2 6.9 7.1 7.1 7.1 6.8 5.8 7.5 6.6 6.4 6.1 6.3 6.4 6.5 6.3 6.9 6.1 5.9 6.4 6.9 7.0 6.8 7.6 5.6 5.2 5.3 4.5 nan nan nan